Location: Hawk's Hollow Observatory
(42.9278°N, 85.8301°W)
Time: 13:46:19
(UTC-04:00)

ISS - Visible Passes

Search period start: 23 July 2018 00:00
Search period end: 02 August 2018 00:00
Orbit: 402 x 408 km, 51.6° (Epoch: 23 July)

Date Brightness Start Highest point End Pass type
(mag) Time Alt. Az. Time Alt. Az. Time Alt. Az.
23 Jul -1.0 01:26:55 10° NW 01:29:20 19° N 01:30:57 14° NE visible
23 Jul -0.9 03:03:15 10° NW 03:03:29 12° NW 03:03:29 12° NW visible
23 Jul -1.6 22:56:49 10° W 22:59:43 27° NNW 23:02:36 10° NE visible
24 Jul -0.9 00:34:38 10° NW 00:36:58 18° N 00:39:17 10° NE visible
24 Jul -1.0 02:11:13 10° NW 02:12:10 16° NNW 02:12:10 16° NNW visible
24 Jul -2.3 22:04:20 10° W 22:07:27 39° NNW 22:10:34 10° NE visible
24 Jul -0.9 23:42:12 10° NW 23:44:34 18° N 23:46:57 10° NE visible
25 Jul -1.2 01:19:11 10° NW 01:21:16 22° N 01:21:16 22° N visible
25 Jul -1.1 22:49:39 10° WNW 22:52:11 20° NNW 22:54:45 10° NE visible
26 Jul -1.3 00:27:02 10° NW 00:29:31 19° N 00:30:33 17° NE visible
26 Jul -1.4 21:57:02 10° WNW 21:59:49 25° NNW 22:02:37 10° NE visible
26 Jul -1.0 23:34:47 10° NW 23:37:06 18° N 23:39:27 10° NE visible
27 Jul -1.1 01:11:14 10° NW 01:12:31 19° NNW 01:12:31 19° NNW visible
27 Jul -1.0 22:42:21 10° NW 22:44:41 18° N 22:47:01 10° NE visible
28 Jul -1.7 00:19:10 10° NW 00:21:55 25° NNE 00:21:55 25° NNE visible
28 Jul -1.2 21:49:47 10° WNW 21:52:15 19° N 21:54:43 10° NE visible
28 Jul -1.4 23:27:01 10° NW 23:29:35 20° NNE 23:31:20 14° NE visible
29 Jul -0.9 01:03:15 10° NW 01:03:58 15° NW 01:03:58 15° NW visible
29 Jul -1.2 22:34:46 10° NW 22:37:08 18° N 22:39:31 10° NE visible
30 Jul -2.0 00:11:08 10° NW 00:13:25 32° NNW 00:13:25 32° NNW visible
30 Jul -1.2 21:42:22 10° NW 21:44:41 17° N 21:46:59 10° NE visible
30 Jul -2.1 23:19:02 10° NW 23:21:55 27° NNE 23:22:53 23° NE visible
31 Jul -0.7 00:55:21 10° WNW 00:55:31 11° WNW 00:55:31 11° WNW visible
31 Jul -1.6 22:26:53 10° NW 22:29:31 22° NNE 22:32:09 10° ENE visible
01 Aug -2.1 00:03:06 10° NW 00:05:01 32° NW 00:05:01 32° NW visible
01 Aug -1.4 21:34:38 10° NW 21:37:03 19° N 21:39:28 10° NE visible
01 Aug -3.1 23:10:56 10° NW 23:14:07 46° NNE 23:14:31 43° NE visible
